| time (UTC) | temp F | wind direction | speed knots | gust knots | rain 1hr in | rain 24hr in | rain mn in | humidity % | barometer mb |
| 20260901023031 | 58 | 330 | 0.0 | 0.0 | 0.00 | 0.01 | 0.01 | 91 | 1017.7 |
| 20260901021529 | 59 | 330 | 0.0 | 0.0 | 0.00 | 0.01 | 0.01 | 90 | 1017.7 |
| 20260901020026 | 59 | 330 | 0.0 | 0.0 | 0.00 | 0.01 | 0.01 | 90 | 1017.8 |
| 20260901014527 | 60 | 330 | 0.0 | 0.0 | 0.00 | 0.01 | 0.01 | 89 | 1017.8 |
| 20260901013028 | 60 | 330 | 0.0 | 0.0 | 0.00 | 0.01 | 0.01 | 88 | 1017.7 |
| 20260901011522 | 61 | 330 | 0.0 | 0.0 | 0.00 | 0.01 | 0.01 | 89 | 1017.8 |
| 20260901010023 | 62 | 330 | 0.0 | 0.0 | 0.00 | 0.01 | 0.01 | 88 | 1017.7 |
| 20260901004523 | 62 | 330 | 0.0 | 0.0 | 0.00 | 0.01 | 0.01 | 88 | 1017.5 |
| 20260901003023 | 63 | 330 | 0.0 | 0.0 | 0.00 | 0.01 | 0.01 | 89 | 1017.7 |
| 20260901001523 | 63 | 330 | 0.0 | 0.0 | 0.00 | 0.01 | 0.01 | 88 | 1017.8 |
| 20260901000717 | 63 | 330 | 0.0 | 0.0 | 0.00 | 0.01 | 0.01 | 87 | 1017.5 |
| 20260831234523 | 64 | 330 | 0.0 | 0.0 | 0.00 | 0.01 | 0.01 | 86 | 1017.7 |
| 20260831233023 | 64 | 330 | 0.0 | 0.0 | 0.00 | 0.02 | 0.01 | 84 | 1017.7 |
| 20260831231522 | 65 | 330 | 0.0 | 0.0 | 0.00 | 0.03 | 0.01 | 81 | 1017.8 |
| 20260831230022 | 66 | 330 | 0.0 | 0.0 | 0.00 | 0.03 | 0.01 | 81 | 1017.8 |
| 20260831224522 | 67 | 330 | 0.0 | 0.0 | 0.00 | 0.03 | 0.01 | 79 | 1017.9 |
| 20260831223021 | 68 | 330 | 0.0 | 0.0 | 0.00 | 0.03 | 0.01 | 76 | 1018.1 |
| 20260831221523 | 69 | 330 | 0.0 | 0.0 | 0.00 | 0.03 | 0.01 | 73 | 1017.9 |
| 20260831220022 | 70 | 330 | 0.0 | 0.0 | 0.00 | 0.03 | 0.01 | 72 | 1017.8 |
| 20260831214518 | 71 | 330 | 0.0 | 0.0 | 0.00 | 0.03 | 0.01 | 68 | 1017.9 |
| 20260831213016 | 72 | 330 | 0.0 | 1.7 | 0.00 | 0.03 | 0.01 | 65 | 1017.8 |
| 20260831211515 | 73 | 24 | 0.0 | 2.6 | 0.00 | 0.03 | 0.01 | 64 | 1017.9 |
| 20260831210013 | 73 | 50 | 0.0 | 0.0 | 0.00 | 0.03 | 0.01 | 61 | 1017.9 |
| 20260831204513 | 74 | 154 | 0.0 | 0.0 | 0.00 | 0.03 | 0.01 | 54 | 1017.9 |
| 20260831203013 | 74 | 323 | 0.0 | 0.0 | 0.00 | 0.03 | 0.01 | 58 | 1018.1 |
| 20260831201511 | 75 | 317 | 0.0 | 1.7 | 0.00 | 0.03 | 0.01 | 56 | 1018.2 |
| 20260831200013 | 75 | 254 | 0.0 | 5.2 | 0.00 | 0.03 | 0.01 | 47 | 1018.3 |
| 20260831194508 | 75 | 307 | 0.0 | 2.6 | 0.00 | 0.03 | 0.01 | 50 | 1018.4 |
| 20260831193007 | 75 | 14 | 0.9 | 5.2 | 0.00 | 0.03 | 0.01 | 50 | 1018.4 |
| 20260831191508 | 76 | 163 | 0.9 | 4.3 | 0.00 | 0.03 | 0.01 | 50 | 1018.3 |
| 20260831190007 | 76 | 211 | 0.9 | 6.1 | 0.00 | 0.03 | 0.01 | 59 | 1018.3 |
| 20260831184506 | 77 | 182 | 0.0 | 5.2 | 0.00 | 0.03 | 0.01 | 58 | 1018.3 |
| 20260831183008 | 75 | 192 | 0.9 | 4.3 | 0.00 | 0.03 | 0.01 | 60 | 1018.5 |
| 20260831181506 | 75 | 173 | 0.0 | 1.7 | 0.00 | 0.03 | 0.01 | 61 | 1018.8 |
| 20260831180003 | 75 | 173 | 0.0 | 2.6 | 0.00 | 0.03 | 0.01 | 62 | 1018.9 |
| 20260831174502 | 76 | 177 | 0.9 | 2.6 | 0.00 | 0.03 | 0.01 | 53 | 1019.0 |
| 20260831173002 | 76 | 179 | 0.9 | 4.3 | 0.00 | 0.03 | 0.01 | 57 | 1018.8 |
| 20260831171502 | 76 | 192 | 0.9 | 4.3 | 0.00 | 0.03 | 0.01 | 61 | 1018.9 |
| 20260831170001 | 75 | 187 | 2.6 | 7.8 | 0.00 | 0.03 | 0.01 | 57 | 1019.3 |
| 20260831165149 | 76 | 185 | 0.0 | 6.1 | 0.00 | 0.03 | 0.01 | 58 | 1019.4 |
| 20260831162959 | 76 | 355 | 0.0 | 3.5 | 0.00 | 0.03 | 0.01 | 55 | 1019.5 |
| 20260831161501 | 76 | 169 | 0.0 | 1.7 | 0.00 | 0.03 | 0.01 | 53 | 1019.6 |
| 20260831160000 | 75 | 303 | 0.0 | 3.5 | 0.00 | 0.03 | 0.01 | 61 | 1019.7 |
| 20260831154502 | 74 | 233 | 0.0 | 2.6 | 0.00 | 0.03 | 0.01 | 59 | 1019.8 |
| 20260831152959 | 73 | 11 | 0.0 | 3.5 | 0.00 | 0.03 | 0.01 | 66 | 1019.9 |
| 20260831151458 | 71 | 168 | 0.0 | 3.5 | 0.00 | 0.03 | 0.01 | 68 | 1019.9 |
| 20260831145957 | 71 | 195 | 0.0 | 0.0 | 0.00 | 0.03 | 0.01 | 66 | 1019.8 |
| 20260831144457 | 70 | 255 | 0.0 | 0.0 | 0.00 | 0.03 | 0.01 | 76 | 1019.8 |
| 20260831142956 | 69 | 182 | 0.0 | 0.0 | 0.00 | 0.03 | 0.01 | 79 | 1020.1 |
| 20260831142208 | 68 | 182 | 0.0 | 4.3 | 0.00 | 0.03 | 0.01 | 77 | 1020.1 |
| 20260831135954 | 67 | 297 | 0.0 | 0.9 | 0.00 | 0.03 | 0.01 | 86 | 1020.0 |
| 20260831134453 | 64 | 304 | 0.0 | 0.0 | 0.00 | 0.03 | 0.01 | 91 | 1019.9 |
| 20260831134351 | 61 | 298 | 0.0 | 0.0 | 0.00 | 0.03 | 0.01 | 98 | 1020.1 |
| 20260831132153 | 59 | 299 | 0.0 | 0.0 | 0.00 | 0.03 | 0.01 | 99 | 1019.9 |
| 20260831125950 | 57 | 299 | 0.0 | 0.0 | 0.00 | 0.03 | 0.01 | 99 | 1020.1 |
| 20260831124449 | 54 | 299 | 0.0 | 0.0 | 0.00 | 0.03 | 0.01 | 98 | 1020.2 |
| 20260831122942 | 53 | 299 | 0.0 | 0.0 | 0.00 | 0.03 | 0.01 | 98 | 1020.1 |
| 20260831121441 | 52 | 299 | 0.0 | 0.0 | 0.00 | 0.03 | 0.01 | 97 | 1020.3 |
| 20260831115940 | 52 | 298 | 0.0 | 0.0 | 0.00 | 0.03 | 0.01 | 96 | 1020.5 |
| 20260831114442 | 52 | 299 | 0.0 | 0.0 | 0.00 | 0.03 | 0.01 | 96 | 1020.6 |
| 20260831112941 | 53 | 299 | 0.0 | 0.0 | 0.00 | 0.03 | 0.01 | 95 | 1020.6 |
| 20260831111440 | 53 | 299 | 0.0 | 0.0 | 0.00 | 0.03 | 0.01 | 95 | 1020.3 |
| 20260831105942 | 54 | 299 | 0.0 | 0.0 | 0.00 | 0.03 | 0.01 | 96 | 1020.3 |
| 20260831104442 | 54 | 299 | 0.0 | 0.0 | 0.00 | 0.03 | 0.01 | 97 | 1020.2 |
| 20260831102940 | 55 | 299 | 0.0 | 0.0 | 0.00 | 0.03 | 0.01 | 97 | 1020.1 |
| 20260831101441 | 55 | 299 | 0.0 | 0.0 | 0.00 | 0.03 | 0.01 | 97 | 1020.0 |
| 20260831095940 | 55 | 299 | 0.0 | 0.0 | 0.00 | 0.03 | 0.01 | 97 | 1020.0 |
| 20260831095838 | 55 | 298 | 0.0 | 0.0 | 0.00 | 0.03 | 0.01 | 97 | 1019.9 |
| 20260831092939 | 55 | 298 | 0.0 | 0.0 | 0.00 | 0.03 | 0.01 | 97 | 1019.7 |
| 20260831091437 | 55 | 298 | 0.0 | 0.0 | 0.00 | 0.03 | 0.01 | 96 | 1019.6 |
| 20260831085936 | 56 | 298 | 0.0 | 0.0 | 0.00 | 0.03 | 0.01 | 97 | 1019.4 |
| 20260831084433 | 56 | 298 | 0.0 | 0.0 | 0.00 | 0.03 | 0.01 | 97 | 1019.4 |
| 20260831082934 | 56 | 298 | 0.0 | 0.0 | 0.01 | 0.03 | 0.01 | 97 | 1019.4 |
| 20260831081425 | 56 | 298 | 0.0 | 0.0 | 0.01 | 0.03 | 0.01 | 97 | 1019.3 |
| 20260831075924 | 56 | 298 | 0.0 | 0.0 | 0.01 | 0.03 | 0.01 | 97 | 1019.1 |
| 20260831074425 | 56 | 298 | 0.0 | 0.0 | 0.01 | 0.03 | 0.01 | 97 | 1019.1 |
| 20260831072925 | 56 | 298 | 0.0 | 0.0 | 0.00 | 0.02 | 0.00 | 97 | 1018.9 |
| 20260831071425 | 57 | 298 | 0.0 | 0.0 | 0.00 | 0.02 | 0.00 | 96 | 1018.8 |
| 20260831065925 | 57 | 298 | 0.0 | 0.0 | 0.00 | 0.02 | 0.00 | 96 | 1018.7 |
| 20260831064420 | 58 | 298 | 0.0 | 0.0 | 0.00 | 0.02 | 0.00 | 96 | 1018.5 |
| 20260831062920 | 58 | 298 | 0.0 | 0.0 | 0.00 | 0.02 | 0.00 | 97 | 1018.5 |
| 20260831061420 | 58 | 298 | 0.0 | 0.0 | 0.00 | 0.02 | 0.00 | 97 | 1018.5 |
| 20260831055920 | 58 | 298 | 0.0 | 0.0 | 0.00 | 0.02 | 0.00 | 97 | 1018.6 |
| 20260831054420 | 58 | 298 | 0.0 | 0.0 | 0.00 | 0.02 | 0.00 | 96 | 1018.5 |
| 20260831052920 | 58 | 298 | 0.0 | 0.0 | 0.00 | 0.02 | 0.00 | 96 | 1018.5 |
| 20260831051421 | 59 | 298 | 0.0 | 0.0 | 0.00 | 0.02 | 0.00 | 96 | 1018.5 |
| 20260831045921 | 59 | 298 | 0.0 | 0.0 | 0.00 | 0.02 | 0.00 | 96 | 1018.7 |
| 20260831044422 | 60 | 298 | 0.0 | 0.0 | 0.00 | 0.02 | 0.00 | 96 | 1018.5 |
| 20260831042921 | 60 | 298 | 0.0 | 0.0 | 0.00 | 0.02 | 0.00 | 96 | 1018.4 |
| 20260831041419 | 61 | 298 | 0.0 | 0.0 | 0.00 | 0.02 | 0.00 | 96 | 1018.2 |
| 20260831035918 | 61 | 298 | 0.0 | 0.0 | 0.00 | 0.02 | 0.02 | 97 | 1018.1 |
| 20260831035112 | 61 | 298 | 0.0 | 0.0 | 0.00 | 0.02 | 0.02 | 96 | 1018.0 |
| 20260831032913 | 61 | 298 | 0.0 | 0.0 | 0.00 | 0.02 | 0.02 | 96 | 1018.0 |
| 20260831031413 | 61 | 298 | 0.0 | 0.0 | 0.00 | 0.02 | 0.02 | 97 | 1018.0 |
| 20260831031328 | 61 | 298 | 0.0 | 0.0 | 0.00 | 0.02 | 0.02 | 96 | 1018.1 |